User: anonymous   Login
Location: Baix
(44.7118°N, 4.7648°E)
Time: 16:13:31
(UTC+00:00)
Language:

Cosmos 1626 Rocket - Orbit

View from above orbital plane
View from above orbital plane
View from above satellite
View from above satellite

Ground track
Ground track

The orbit data is extracted from the following two-line orbital elements,

1 15495U 85009B   20296.10681347  .00000067  00000-0  51507-5 0  9991
2 15495  82.5210 121.8388 0018641 254.1892 105.7268 14.83880052931311
Epoch (UTC): 22 October 2020 02:33:48
Eccentricity: 0.0018641
inclination: 82.5210°
perigee height: 604 km
apogee height: 630 km
right ascension of ascending node: 121.8388°
argument of perigee: 254.1892°
revolutions per day: 14.83880052
mean anomaly at epoch: 105.7268°
orbit number at epoch: 93131

The dashed part of the orbit path shows where the satellite is in the earth's shadow,  

DLR